Location: Krakow
(50.0830°N, 19.9170°E)
Time: 04:17:28
(UTC+01:00)

SR - All Passes

Search period start: 08 February 2023 00:00
Search period end: 18 February 2023 00:00
Orbit: 581 x 869 km, 66.7° (Epoch: 07 February)

Date Brightness Start Highest point End Pass type
(mag) Time Alt. Az. Time Alt. Az. Time Alt. Az.
08 Feb - 11:31:34 10° ESE 11:32:58 11° ESE 11:34:21 10° E daylight
08 Feb - 13:09:10 10° SSW 13:14:13 69° ESE 13:18:52 10° NE daylight
08 Feb - 14:52:27 10° W 14:56:34 26° NW 15:00:27 10° NNE daylight
08 Feb - 16:38:58 10° NNW 16:40:06 11° NNW 16:41:14 10° N daylight
08 Feb - 18:23:06 10° N 18:24:14 11° NNE 18:25:21 10° NNE visible
08 Feb - 20:03:57 10° NNW 20:07:43 28° NE 20:11:24 10° E visible
08 Feb - 21:45:45 10° NW 21:49:54 49° WSW 21:54:00 10° SSE visible
09 Feb - 12:19:14 10° S 12:23:52 36° ESE 12:28:11 10° NE daylight
09 Feb - 14:01:07 10° WSW 14:05:50 42° NW 14:10:13 10° NNE daylight
09 Feb - 15:46:34 10° NW 15:48:58 14° NNW 15:51:17 10° N daylight
09 Feb - 19:13:46 10° NNW 19:16:50 18° NNE 19:19:51 10° ENE visible
09 Feb - 20:55:11 10° NW 20:59:31 82° NE 21:03:45 10° SE visible
09 Feb - 22:38:42 10° WNW 22:40:49 13° WSW 22:42:54 10° SW night (unlit)
10 Feb - 11:30:04 10° SSE 11:33:39 20° ESE 11:37:04 10° ENE daylight
10 Feb - 13:10:12 10° SW 13:15:14 73° NW 13:19:52 10° NE daylight
10 Feb - 14:54:32 10° WNW 14:57:56 19° NNW 15:01:11 10° NNE daylight
10 Feb - 18:23:40 10° N 18:25:48 13° NNE 18:27:55 10° NE visible
10 Feb - 20:04:47 10° NNW 20:08:57 43° NE 20:12:59 10° ESE visible
10 Feb - 21:47:05 10° NW 21:50:43 27° WSW 21:54:18 10° S visible
11 Feb - 12:19:47 10° SSW 12:24:46 62° ESE 12:29:22 10° NE daylight
11 Feb - 14:02:51 10° W 14:07:03 28° NW 14:11:00 10° NNE daylight
11 Feb - 15:49:15 10° NNW 15:50:32 11° NNW 15:51:48 10° N daylight
11 Feb - 17:33:50 10° N 17:34:39 10° NNE 17:35:27 10° NNE visible
11 Feb - 19:14:31 10° NNW 19:18:12 26° NE 19:21:47 10° E visible
11 Feb - 20:56:15 10° NW 21:00:27 55° WSW 21:04:36 10° SSE visible
12 Feb - 11:29:57 10° S 11:34:26 33° ESE 11:38:38 10° NE daylight
12 Feb - 13:11:35 10° WSW 13:16:20 45° NW 13:20:45 10° NNE daylight
12 Feb - 14:56:53 10° WNW 14:59:24 14° NNW 15:01:51 10° N daylight
12 Feb - 18:24:21 10° NNW 18:27:17 17° NNE 18:30:09 10° ENE visible
12 Feb - 20:05:43 10° NW 20:10:01 74° NE 20:14:15 10° SE visible
12 Feb - 21:48:55 10° WNW 21:51:24 15° WSW 21:53:51 10° SW visible
13 Feb - 10:40:57 10° SSE 10:44:14 18° ESE 10:47:23 10° ENE daylight
13 Feb - 12:20:44 10° SW 12:25:44 80° NW 12:30:22 10° NE daylight
13 Feb - 14:04:53 10° W 14:08:23 20° NNW 14:11:43 10° NNE daylight
13 Feb - 17:34:17 10° N 17:36:13 13° NNE 17:38:07 10° NE visible
13 Feb - 19:15:20 10° NNW 19:19:25 39° NE 19:23:25 10° ESE visible
13 Feb - 20:57:31 10° NW 21:01:16 30° WSW 21:04:59 10° S visible
14 Feb - 11:30:23 10° SSW 11:35:18 56° ESE 11:39:51 10° NE daylight
14 Feb - 13:13:15 10° W 13:17:31 30° NW 13:21:32 10° NNE daylight
14 Feb - 14:59:29 10° NW 15:00:56 11° NNW 15:02:22 10° N daylight
14 Feb - 16:44:45 10° N 16:45:02 10° N 16:45:20 10° NNE daylight
14 Feb - 18:25:05 10° NNW 18:28:39 24° NE 18:32:07 10° E visible
14 Feb - 20:06:44 10° NW 20:10:58 62° WSW 20:15:09 10° SSE visible
15 Feb - 10:40:39 10° S 10:44:59 30° ESE 10:49:02 10° NE daylight
15 Feb - 12:22:02 10° WSW 12:26:49 49° NW 12:31:15 10° NNE daylight
15 Feb - 14:07:09 10° WNW 14:09:49 15° NNW 14:12:23 10° N daylight
15 Feb - 17:34:55 10° NNW 17:37:42 16° NNE 17:40:25 10° ENE visible
15 Feb - 19:16:13 10° NNW 19:20:30 66° NE 19:24:43 10° SE visible
15 Feb - 20:59:12 10° WNW 21:01:57 17° WSW 21:04:43 10° SSW visible
16 Feb - 09:51:52 10° SE 09:54:48 16° ESE 09:57:37 10° ENE daylight
16 Feb - 11:31:15 10° SW 11:36:15 87° NW 11:40:51 10° NE daylight
16 Feb - 13:15:12 10° W 13:18:49 21° NNW 13:22:15 10° NNE daylight
16 Feb - 16:44:53 10° N 16:46:37 12° NNE 16:48:19 10° NE daylight
16 Feb - 18:25:52 10° NNW 18:29:52 36° NE 18:33:48 10° ESE visible
16 Feb - 20:07:56 10° NW 20:11:47 34° WSW 20:15:38 10° S visible
17 Feb - 10:40:59 10° SSW 10:45:49 50° ESE 10:50:17 10° NE daylight
17 Feb - 12:23:38 10° WSW 12:27:58 32° NW 12:32:02 10° NNE daylight
17 Feb - 14:09:42 10° NW 14:11:19 12° NNW 14:12:54 10° N daylight
17 Feb - 17:35:37 10° NNW 17:39:03 22° NE 17:42:26 10° E visible
17 Feb - 19:17:12 10° NW 19:21:27 70° WSW 19:25:41 10° SSE visible
